Tracking 28799 objects as of 18-Apr-2024
HD Live streaming from Space Station
objects crossing your sky now

BREEZE-M R/B

Track BREEZE-M R/B now!


NORAD ID: 40365
Int'l Code: 2014-089B
Perigee: 3,464.8 km
Apogee: 33,809.1 km
Inclination: 22.8 °
Period: 656.0 minutes
Semi major axis: 25007 km
RCS: Unknown
Launch date: December 27, 2014
Source: Commonwealth of Independent States (former USSR) (CIS)
Launch site: TYURATAM MISSILE AND SPACE COMPLEX (TTMTR)

Note: This is a ROCKET BODY
Your satellite tracking list
Your tracking list is empty




NASA's NSSDC Master Catalog

Two Line Element Set (TLE):
1 40365U 14089B   24108.29730315 -.00000150  00000-0  00000-0 0  9992
2 40365  22.8406 124.7408 6066924  82.9480 338.3931  2.19525729 74454
Source of the keplerian elements: AFSPC